Location: Risskov
(56.1972°N, 10.2480°E)
Time: 22:59:26
(UTC+00:00)

Cosmos 2218 Rocket - Pass Details

Date: 05 July 2020
Orbit: 955 x 1007 km, 82.9° (Epoch: 14 August)

Event Time Altitude Azimuth Distance (km) Brightness Sun altitude
Exits shadow 22:50:54 14° 175° (S) 2,493 5.5 -10.8°
Maximum altitude 22:56:26 67° 95° (E) 1,072 4.2 -10.9°
Drops below altitude 10° 23:02:41 10° 15° (NNE) 2,751 7.6 -11.0°
Sets 23:05:13 0° 13° (NNE) 3,695 8.6 -11.0°
